sat.trackr.live / text

‹ back to catalog

STARLINK-11300 [DTC]

NORAD 61243 · 2024-175A

PAYLOAD ACTIVE UNKNOWN

§ Identity

Operator
Country
US
Launch date
2024-09-25
Launch site
AFWTR
Launch vehicle
Mass (kg)
RCS (m²)

Purposes: comms

External: N2YO · Heavens-Above · Gunter

§ Orbital elements

Epoch: 2026-05-25T03:22:25.776768Z

Period
91.74 min
Inclination
53.1591°
Eccentricity
0.0000649
Mean motion
15.69724131 rev/d
Perigee alt
359.2 km
Apogee alt
360.1 km
Semi-major
6,737.8 km
B*
2.8537e-5
RAAN
39.4142°
Arg perigee
107.4619°
Mean anomaly
252.6469°
Rev number
9,537

§ Raw data

STARLINK-11300 [DTC]1 61243U 24175A   26145.14057612  .00002872  00000+0  28537-4 0  99962 61243  53.1591  39.4142 0000649 107.4619 252.6469 15.69724131 95379

JSON: /api/v1/satellites/61243 · /tle

For live sub-satellite position, see the globe view (requires WebGL).

§ Visibility from observer

Set your observer location to see the next 7 days of passes ≥ 10°. The values pass through the URL so the page stays shareable.

No JS? Fill the form by hand. The geolocation button needs JavaScript.